| time (UTC) | temp F | wind direction | speed knots | gust knots | rain 1hr in | rain 24hr in | rain mn in | humidity % | barometer mb |
| 20260505223044 | 58 | 232 | 0.9 | 7.0 | 0.00 | 0.00 | 0.00 | 85 | 1015.5 |
| 20260505221541 | 58 | 252 | 1.7 | 6.1 | 0.00 | 0.00 | 0.00 | 84 | 1015.6 |
| 20260505220044 | 59 | 196 | 2.6 | 6.1 | 0.00 | 0.00 | 0.00 | 82 | 1015.6 |
| 20260505214539 | 59 | 273 | 1.7 | 4.3 | 0.00 | 0.00 | 0.00 | 83 | 1015.5 |
| 20260505213044 | 58 | 214 | 0.9 | 6.1 | 0.00 | 0.00 | 0.00 | 84 | 1015.6 |
| 20260505211543 | 58 | 314 | 1.7 | 6.1 | 0.00 | 0.00 | 0.00 | 84 | 1015.6 |
| 20260505210044 | 58 | 180 | 1.7 | 6.1 | 0.00 | 0.00 | 0.00 | 84 | 1015.5 |
| 20260505204548 | 59 | 238 | 1.7 | 6.1 | 0.00 | 0.00 | 0.00 | 84 | 1015.6 |
| 20260505203052 | 58 | 251 | 0.9 | 5.2 | 0.00 | 0.00 | 0.00 | 85 | 1015.6 |
| 20260505201536 | 58 | 232 | 0.9 | 5.2 | 0.00 | 0.00 | 0.00 | 86 | 1015.7 |
| 20260505200047 | 57 | 242 | 0.9 | 7.0 | 0.00 | 0.00 | 0.00 | 86 | 1015.7 |
| 20260505194603 | 57 | 229 | 1.7 | 6.1 | 0.00 | 0.00 | 0.00 | 86 | 1015.6 |
| 20260505193043 | 57 | 311 | 0.9 | 4.3 | 0.00 | 0.00 | 0.00 | 87 | 1015.5 |
| 20260505191553 | 57 | 235 | 0.9 | 5.2 | 0.00 | 0.00 | 0.00 | 87 | 1015.4 |
| 20260505190042 | 57 | 253 | 0.9 | 6.1 | 0.00 | 0.00 | 0.00 | 87 | 1015.3 |
| 20260505184548 | 57 | 0 | 0.0 | 5.2 | 0.00 | 0.00 | 0.00 | 87 | 1015.3 |
| 20260505183043 | 57 | 0 | 0.0 | 2.6 | 0.00 | 0.00 | 0.00 | 87 | 1015.2 |
| 20260505181542 | 57 | 256 | 1.7 | 4.3 | 0.00 | 0.00 | 0.00 | 86 | 1015.2 |
| 20260505180047 | 57 | 0 | 0.0 | 3.5 | 0.00 | 0.00 | 0.00 | 84 | 1015.0 |
| 20260505174549 | 57 | 204 | 0.0 | 1.7 | 0.00 | 0.00 | 0.00 | 84 | 1014.9 |
| 20260505173059 | 57 | 229 | 0.0 | 2.6 | 0.00 | 0.00 | 0.00 | 85 | 1014.8 |
| 20260505171556 | 57 | 0 | 0.0 | 1.7 | 0.00 | 0.00 | 0.00 | 85 | 1014.8 |
| 20260505170044 | 57 | 0 | 0.0 | 3.5 | 0.00 | 0.00 | 0.00 | 85 | 1014.6 |
| 20260505164544 | 57 | 0 | 0.0 | 2.6 | 0.00 | 0.00 | 0.00 | 84 | 1014.7 |
| 20260505163049 | 57 | 0 | 0.0 | 0.0 | 0.00 | 0.00 | 0.00 | 83 | 1014.6 |
| 20260505161538 | 56 | 0 | 0.0 | 0.0 | 0.00 | 0.00 | 0.00 | 82 | 1014.6 |
| 20260505153043 | 55 | 0 | 0.0 | 0.0 | 0.00 | 0.00 | 0.00 | 85 | 1014.7 |
| 20260505151541 | 55 | 0 | 0.0 | 0.0 | 0.00 | 0.00 | 0.00 | 85 | 1014.7 |
| 20260505124551 | 54 | 0 | 0.0 | 0.0 | 0.00 | 0.00 | 0.00 | 90 | 1014.0 |
| 20260505123053 | 54 | 0 | 0.0 | 0.0 | 0.00 | 0.00 | 0.00 | 89 | 1013.9 |
| 20260505121612 | 54 | 0 | 0.0 | 0.0 | 0.00 | 0.00 | 0.00 | 89 | 1013.9 |
| 20260505120046 | 54 | 0 | 0.0 | 0.0 | 0.00 | 0.00 | 0.00 | 89 | 1013.9 |
| 20260505114540 | 54 | 0 | 0.0 | 0.0 | 0.00 | 0.00 | 0.00 | 89 | 1013.8 |
| 20260505113048 | 54 | 0 | 0.0 | 0.0 | 0.00 | 0.00 | 0.00 | 89 | 1013.8 |
| 20260505111548 | 54 | 0 | 0.0 | 0.0 | 0.00 | 0.00 | 0.00 | 88 | 1013.6 |
| 20260505101540 | 54 | 0 | 0.0 | 0.0 | 0.00 | 0.00 | 0.00 | 87 | 1013.4 |
| 20260505100046 | 54 | 0 | 0.0 | 0.0 | 0.00 | 0.00 | 0.00 | 86 | 1013.4 |
| 20260505094545 | 54 | 0 | 0.0 | 1.7 | 0.00 | 0.00 | 0.00 | 87 | 1013.5 |
| 20260505093042 | 54 | 151 | 0.0 | 2.6 | 0.00 | 0.00 | 0.00 | 87 | 1013.4 |
| 20260505091552 | 54 | 151 | 0.0 | 0.9 | 0.00 | 0.00 | 0.00 | 87 | 1013.5 |
| 20260505090053 | 54 | 0 | 0.0 | 1.7 | 0.00 | 0.00 | 0.00 | 87 | 1013.6 |
| 20260505084547 | 54 | 0 | 0.9 | 2.6 | 0.00 | 0.00 | 0.00 | 87 | 1013.6 |
| 20260505083050 | 55 | 0 | 0.0 | 1.7 | 0.00 | 0.00 | 0.00 | 87 | 1013.7 |
| 20260505081547 | 55 | 0 | 0.0 | 1.7 | 0.00 | 0.00 | 0.00 | 87 | 1013.7 |
| 20260505080050 | 55 | 0 | 0.0 | 1.7 | 0.00 | 0.00 | 0.00 | 87 | 1013.8 |
| 20260505074542 | 55 | 0 | 0.0 | 2.6 | 0.00 | 0.00 | 0.00 | 87 | 1013.9 |
| 20260505073056 | 55 | 151 | 0.9 | 1.7 | 0.00 | 0.00 | 0.00 | 88 | 1014.0 |
| 20260505071546 | 55 | 0 | 0.0 | 0.9 | 0.00 | 0.00 | 0.00 | 88 | 1014.0 |
| 20260505070043 | 55 | 151 | 0.0 | 2.6 | 0.00 | 0.00 | 0.00 | 88 | 1014.0 |
| 20260505064543 | 55 | 151 | 0.0 | 2.6 | 0.00 | 0.00 | 0.00 | 88 | 1014.1 |
| 20260505063048 | 55 | 161 | 0.0 | 2.6 | 0.00 | 0.00 | 0.00 | 89 | 1014.1 |
| 20260505061540 | 55 | 163 | 0.0 | 2.6 | 0.00 | 0.00 | 0.00 | 89 | 1013.9 |
| 20260505060049 | 55 | 0 | 0.0 | 2.6 | 0.00 | 0.00 | 0.00 | 89 | 1014.0 |
| 20260505054615 | 55 | 0 | 0.0 | 3.5 | 0.00 | 0.00 | 0.00 | 89 | 1014.1 |
| 20260505053048 | 55 | 155 | 0.9 | 2.6 | 0.00 | 0.00 | 0.00 | 89 | 1014.0 |
| 20260505051545 | 55 | 160 | 0.0 | 1.7 | 0.00 | 0.00 | 0.00 | 90 | 1014.1 |
| 20260505041553 | 54 | 159 | 0.9 | 4.3 | 0.00 | 0.00 | 0.00 | 91 | 1013.7 |
| 20260505040045 | 54 | 217 | 0.9 | 3.5 | 0.00 | 0.00 | 0.00 | 91 | 1013.5 |
| 20260505034541 | 55 | 148 | 0.9 | 4.3 | 0.00 | 0.00 | 0.00 | 91 | 1013.3 |
| 20260505033044 | 55 | 159 | 0.0 | 4.3 | 0.00 | 0.00 | 0.00 | 90 | 1013.4 |
| 20260505031541 | 55 | 0 | 0.9 | 3.5 | 0.00 | 0.00 | 0.00 | 90 | 1013.3 |
| 20260505030056 | 55 | 190 | 0.9 | 1.7 | 0.00 | 0.00 | 0.00 | 90 | 1013.1 |
| 20260505024543 | 55 | 0 | 0.0 | 3.5 | 0.00 | 0.00 | 0.00 | 91 | 1013.0 |
| 20260505023044 | 55 | 182 | 0.9 | 4.3 | 0.00 | 0.00 | 0.00 | 90 | 1012.9 |
| 20260505021550 | 55 | 171 | 0.9 | 2.6 | 0.00 | 0.00 | 0.00 | 90 | 1012.8 |
| 20260505020050 | 55 | 160 | 0.9 | 3.5 | 0.00 | 0.00 | 0.00 | 90 | 1012.8 |
| 20260505014546 | 56 | 169 | 0.9 | 3.5 | 0.00 | 0.00 | 0.00 | 89 | 1012.7 |
| 20260505013046 | 56 | 157 | 1.7 | 3.5 | 0.00 | 0.00 | 0.00 | 88 | 1012.8 |
| 20260505011544 | 57 | 205 | 1.7 | 3.5 | 0.00 | 0.00 | 0.00 | 87 | 1012.9 |
| 20260505010103 | 57 | 173 | 1.7 | 5.2 | 0.00 | 0.00 | 0.00 | 87 | 1013.0 |
| 20260505004539 | 57 | 150 | 0.9 | 4.3 | 0.00 | 0.00 | 0.00 | 86 | 1013.0 |
| 20260505003049 | 58 | 190 | 1.7 | 3.5 | 0.00 | 0.00 | 0.00 | 86 | 1013.1 |
| 20260505001543 | 58 | 218 | 1.7 | 6.1 | 0.00 | 0.00 | 0.00 | 86 | 1013.3 |
| 20260505000051 | 58 | 197 | 1.7 | 4.3 | 0.00 | 0.00 | 0.00 | 85 | 1013.5 |
| 20260504234541 | 58 | 175 | 1.7 | 4.3 | 0.00 | 0.00 | 0.00 | 84 | 1013.6 |
| 20260504233051 | 59 | 279 | 1.7 | 6.1 | 0.00 | 0.00 | 0.00 | 84 | 1013.6 |
| 20260504231538 | 58 | 155 | 1.7 | 6.1 | 0.00 | 0.00 | 0.00 | 86 | 1013.6 |
| 20260504230104 | 58 | 193 | 1.7 | 6.1 | 0.00 | 0.00 | 0.00 | 86 | 1013.7 |
| 20260504224558 | 58 | 161 | 1.7 | 6.1 | 0.00 | 0.00 | 0.00 | 85 | 1013.8 |